Weather History for Chattanooga, TN

Change the Weather History Date:

Friday, October 26, 2012

  Actual Average Record
Temperature  
Mean Temperature 68 °F 58 °F  
Max Temperature 81 °F 70 °F 85 °F (1940)
Min Temperature 55 °F 46 °F 29 °F (1968)
Degree Days  
Heating Degree Days 0 7  
Month to date heating degree days 91 115  
Since 1 July heating degree days 97 130  
Cooling Degree Days 3 1  
Month to date cooling degree days 22 47  
Year to date cooling degree days 2025 1736  
Growing Degree Days 18 (Base 50)    
Moisture  
Dew Point 58 °F    
Average Humidity 71    
Maximum Humidity 100    
Minimum Humidity 42    
Precipitation  
Precipitation 0.00 in 0.10 in 1.97 in (1997)
Month to date precipitation 5.24 2.72  
Year to date precipitation 43.65 42.02  
Snow  
Snow 0.00 in 0.00 in - ()
Month to date snowfall 0.0 0.0  
Since 1 July snowfall 0.0 0.0  
Since 1 September snowfall 0.0 0.0  
Snow Depth 0.00 in    
Sea Level Pressure  
Sea Level Pressure 30.01 in    
Wind  
Wind Speed 2 mph (NW)    
Max Wind Speed 12 mph    
Max Gust Speed 15 mph    
Visibility 10 miles    
Events      
T = Trace of Precipitation, MM = Missing Value Source: NWS Daily Summary

Daily Weather History Graph

Daily Weather History Graph

Search for Another Location

Airport:

Trip Planner

Search our weather history database for the weather conditions in past years. The results will help you decide how hot, cold, wet, or windy it might be!

Date:

Astronomy

Oct. 26, 2012 Rise Set
Actual Time 7:56 AM EDT 6:52 PM EDT
Civil Twilight 7:30 AM EDT 7:18 PM EDT
Nautical Twilight 7:01 AM EDT 7:47 PM EDT
Astronomical Twilight 6:31 AM EDT 8:17 PM EDT
Moon 5:02 PM EDT (10/26) 4:58 AM EDT (10/26)
Length of Visible Light 11h 47m
Length of Day
10h 55m
Waxing Gibbous, 91% of the Moon is Illuminated
Oct 26
Waxing Gibbous
Oct 29
Full
Nov 6
Last Quarter
Nov 13
New
Nov 20
First Quarter

Hourly Weather History & Observations

Time (EDT) Temp. Heat Index Dew Point Humidity Pressure Visibility Wind Dir Wind Speed Gust Speed Precip Events Conditions
12:53 AM 57.0 °F - 55.9 °F 96% 30.04 in 10.0 mi Calm Calm - N/A   Partly Cloudy
1:53 AM 59.0 °F - 57.0 °F 93% 30.03 in 10.0 mi Calm Calm - N/A   Mostly Cloudy
2:53 AM 57.9 °F - 55.9 °F 93% 30.03 in 10.0 mi Calm Calm - N/A   Scattered Clouds
3:53 AM 57.9 °F - 57.0 °F 97% 30.04 in 10.0 mi Calm Calm - N/A   Mostly Cloudy
4:53 AM 57.0 °F - 55.9 °F 96% 30.03 in 10.0 mi Calm Calm - N/A   Mostly Cloudy
5:53 AM 55.9 °F - 55.0 °F 97% 30.03 in 10.0 mi Calm Calm - N/A   Scattered Clouds
6:53 AM 55.9 °F - 55.0 °F 97% 30.04 in 10.0 mi Calm Calm - N/A   Mostly Cloudy
7:36 AM 57.2 °F - 55.4 °F 94% 30.06 in 10.0 mi Calm Calm - N/A   Mostly Cloudy
7:53 AM 57.0 °F - 55.9 °F 96% 30.06 in 10.0 mi Calm Calm - N/A   Mostly Cloudy
8:14 AM 57.2 °F - 57.2 °F 100% 30.07 in 8.0 mi Calm Calm - N/A   Mostly Cloudy
8:53 AM 60.1 °F - 57.9 °F 93% 30.07 in 10.0 mi Calm Calm - N/A   Mostly Cloudy
9:20 AM 60.8 °F - 59.0 °F 94% 30.09 in 10.0 mi Calm Calm - N/A   Mostly Cloudy
9:53 AM 62.1 °F - 59.0 °F 90% 30.08 in 10.0 mi Calm Calm - N/A   Mostly Cloudy
10:53 AM 66.2 °F - 60.8 °F 83% 30.09 in 10.0 mi Calm Calm - N/A   Mostly Cloudy
11:47 AM 71.6 °F - 60.8 °F 69% 30.09 in 10.0 mi Calm Calm - N/A   Mostly Cloudy
11:53 AM 71.1 °F - 61.0 °F 70% 30.07 in 10.0 mi Calm Calm - N/A   Mostly Cloudy
12:53 PM 73.0 °F - 61.0 °F 66% 30.05 in 10.0 mi Calm Calm - N/A   Mostly Cloudy
1:53 PM 75.9 °F - 60.1 °F 58% 30.01 in 10.0 mi Calm Calm - N/A   Scattered Clouds
2:53 PM 78.1 °F - 60.1 °F 54% 29.98 in 10.0 mi West 3.5 mph - N/A   Scattered Clouds
3:53 PM 80.1 °F 80.9 °F 60.1 °F 50% 29.95 in 10.0 mi Variable 5.8 mph - N/A   Scattered Clouds
4:53 PM 80.1 °F 80.4 °F 57.0 °F 45% 29.93 in 10.0 mi Calm Calm - N/A   Scattered Clouds
5:53 PM 80.1 °F 80.2 °F 55.9 °F 43% 29.91 in 10.0 mi Calm Calm - N/A   Scattered Clouds
6:53 PM 73.0 °F - 59.0 °F 61% 29.93 in 10.0 mi Calm Calm - N/A   Scattered Clouds
7:53 PM 71.1 °F - 61.0 °F 70% 29.94 in 10.0 mi Calm Calm - N/A   Scattered Clouds
8:53 PM 71.1 °F - 61.0 °F 70% 29.94 in 10.0 mi NNE 3.5 mph - N/A   Mostly Cloudy
9:53 PM 68.0 °F - 61.0 °F 78% 29.95 in 10.0 mi NNW 3.5 mph - N/A   Mostly Cloudy
10:53 PM 68.0 °F - 60.1 °F 76% 29.95 in 10.0 mi NNW 5.8 mph - N/A   Mostly Cloudy
11:53 PM 64.9 °F - 57.9 °F 78% 29.95 in 10.0 mi NW 5.8 mph - N/A   Overcast